Regional Weather Roundup
Issued by NWS

Home | Current Version | Previous Version | Text Only | Print | Product List | Glossary On
Versions: 1 2 3 4 5 6 7 8 9 10 11 12 13 14 15 16 17 18 19 20 21 22 23 24 25 26 27
000
ASUS44 KLIX 202313
RWRLA
LOUISIANA WEATHER ROUNDUP
NATIONAL WEATHER SERVICE NEW ORLEANS LA
500 PM CST MON FEB 20 2017

NOTE: "FAIR" INDICATES FEW OR NO CLOUDS BELOW 12,000 FEET WITH NO
      SIGNIFICANT WEATHER AND/OR OBSTRUCTIONS TO VISIBILITY.
      SKY/WX - SKY CONDITION AND SIGNIFICANT WEATHER.
      TMP - AIR TEMPERATURE.    DP   - DEWPOINT TEMPERATURE.
      RH  - RELATIVE HUMIDITY.  PRES - PRESSURE.
      HX  - HEAT INDEX.         WCI  - WIND CHILL INDEX.

*  THESE STATIONS ARE NOT NWS OR FAA STATIONS AND ARE NOT UNDER
   NWS QUALITY CONTROL.

LAZ040-048-061>063-065-066-069-210000-
SOUTHEAST LOUISIANA

CITY           SKY/WX    TMP DP  RH WIND       PRES   REMARKS
N.O. AUDUBON   NOT AVBL
N.O. INTL ARPT CLOUDY    74  67  78 SE14      29.97F
N.O. LAKEFRONT CLOUDY    73  67  81 E13       29.99F
N.O. DOWNTOWN*   N/A     74  67  78 SE8       30.00S
RESERVE*       CLOUDY    76  70  81 SE9       29.96F
SLIDELL        CLOUDY    73  65  75 SE12      29.99F
BATON ROUGE    CLOUDY    76  67  73 SE8       29.93S
BOOTHVILLE     CLOUDY    70  68  93 E8        30.01F
BELLE CHASSE   CLOUDY    73  68  84 SE10      29.99F
BOGALUSA*      MOCLDY    77  58  52 SE10      30.00F
GALLIANO*      CLOUDY    73  67  83 SE9       29.98F
NEW ROADS*     MOCLDY    76  67  74 SE13G20   29.91F
GONZALES*      CLOUDY    76  68  76 SE9       29.93F
HAMMOND*       CLOUDY    72  63  73 SE14      29.97S
HOUMA*         CLOUDY    73  70  88 SE15G22   29.97F
PORT FOURCHON* MOCLDY    72  68  88 SE12      29.99R FOG

$$

LAZ041-044-053-054-210000-
SOUTHWEST LOUISIANA

CITY           SKY/WX    TMP DP  RH WIND       PRES   REMARKS
LAKE CHARLES   LGT RAIN  62  61  96 N9        29.94R
LAFAYETTE        N/A     77  70  79 MISG      29.89S
PATTERSON      CLOUDY    74  70  87 SE13      29.94F
SALT POINT       N/A     72  69  90 SE13G21   29.90F
NEW IBERIA     LGT RAIN  74  68  81 SE20G28   29.90F
CHENAULT AIRPK CLOUDY    59  59 100 N10       29.96R

$$

LAZ027-028-210000-
CENTRAL LOUISIANA

CITY           SKY/WX    TMP DP  RH WIND       PRES   REMARKS
FORT POLK      LGT RAIN  60  59  96 NW12      29.95S VSB 5/8
ALEXANDRIA INT RAIN      60  58  92 W20G30    29.92R FOG
ALEXANDRIA       N/A     64  62  93 MISG      29.91R THUNDER

$$

LAZ001-002-210000-
NORTHWEST LOUISIANA

CITY           SKY/WX    TMP DP  RH WIND       PRES   REMARKS
SHREVEPORT     LGT RAIN  61  59  93 N3        29.94F FOG
BARKSDALE AFB  CLOUDY    61  60  96 NW6       29.96S
DTN SHREVEPORT LGT RAIN  62  59  90 CALM      29.96F FOG

$$

LAZ014-016-210000-
NORTHEAST LOUISIANA

CITY           SKY/WX    TMP DP  RH WIND       PRES   REMARKS
MONROE         CLOUDY    76  62  62 SE5       29.88F
TALLULAH       CLOUDY    76  60  57 SE14      29.92F

$$





USA.gov is the U.S. government's official web portal to all federal, state and local government web resources and services.